DateTimeUTC,F1_A11,F1_S11,BsB_S11,BsG_S11,BsR_S11,BbsB_S11,BbsG_S11,BbsR_S11,BaB_A11,BaG_A11,BaR_A11,Tu_S11,T_S11,Uu_S11,U_S11,P_S11,T1_A11
2021-10-08T13:00:00Z,00000200,20000000,,,,,,,0000.57,0000.36,0000.54,16.5,23.3,01.5,01.0,0668.0,30.8
2021-10-08T13:01:00Z,00000200,20000000,,,,,,,0000.32,0000.56,0000.32,16.5,23.3,01.5,01.0,0668.0,30.8
2021-10-08T13:02:00Z,00000200,20000000,,,,,,,0000.57,0000.49,0000.54,16.5,23.3,01.5,01.0,0668.1,30.9
2021-10-08T13:03:00Z,00000200,60000000,,,,,,,0000.74,0001.13,0000.61,16.6,23.4,01.5,01.0,0668.1,30.9
2021-10-08T13:04:00Z,00000200,40000000,0000.38,0000.01,0000.15,0000.15,-000.16,0000.44,0000.97,0000.25,0000.14,17.0,23.3,02.2,01.5,0669.0,30.9
2021-10-08T13:05:00Z,00000200,00000000,0000.49,0000.20,-000.06,0000.69,0000.02,0000.06,0000.56,0000.84,0000.91,17.1,23.4,02.6,01.7,0669.1,30.9
2021-10-08T13:06:00Z,00000200,00000000,0000.89,0000.34,0000.45,-000.08,-000.35,0000.36,0001.07,0000.91,0000.50,17.2,23.4,03.0,02.0,0669.1,30.9
2021-10-08T13:07:00Z,00000200,00000000,0000.32,0000.23,0000.23,0000.21,0000.08,0000.45,0000.33,0000.80,0000.67,17.1,23.4,03.4,02.3,0669.1,30.9
2021-10-08T13:08:00Z,00000200,00000000,0000.84,0000.49,0000.15,0000.03,0000.44,0000.20,0000.74,0000.50,-000.16,17.1,23.3,03.7,02.5,0669.1,30.9
2021-10-08T13:09:00Z,00000200,00000000,0000.02,0000.43,0000.33,-000.04,0000.16,0000.36,0000.50,0000.04,0000.11,17.0,23.3,03.9,02.7,0669.1,30.9
2021-10-08T13:10:00Z,00000200,00000000,0000.26,-000.04,0000.39,0000.03,0000.12,-000.09,-000.01,0000.04,0000.27,16.9,23.2,04.0,02.7,0669.1,30.8
2021-10-08T13:11:00Z,00000200,00000000,0000.41,0000.37,0000.34,0000.34,0000.12,0000.34,0000.12,-000.13,-000.38,16.9,23.2,03.9,02.6,0669.1,30.8
2021-10-08T13:12:00Z,00000200,00000000,0000.59,0000.37,0000.40,0000.24,-000.32,-000.03,-000.33,-000.01,-000.01,16.8,23.2,04.0,02.7,0669.2,30.8
2021-10-08T13:13:00Z,00000200,00000000,0000.25,0000.63,0000.44,0000.41,0000.08,0000.31,0000.38,0000.25,0000.34,16.8,23.2,03.8,02.5,0669.2,30.8
2021-10-08T13:14:00Z,00000200,00000000,0000.30,0000.77,0000.17,-000.62,-000.16,-000.18,0000.13,0000.37,0000.42,16.8,23.2,03.6,02.4,0669.2,30.8
2021-10-08T13:15:00Z,00000200,00000000,0000.90,0000.46,0000.29,0000.21,-000.02,0000.25,0001.03,0000.60,0000.19,16.9,23.2,03.6,02.4,0669.2,30.8
2021-10-08T13:16:00Z,00000200,00000000,0000.25,0000.20,0000.14,0000.03,-000.10,0000.57,0000.27,0000.59,0000.65,17.0,23.2,03.9,02.7,0669.2,30.9
2021-10-08T13:17:00Z,00000200,00000000,0001.02,0000.31,0000.10,-000.54,-000.04,0000.20,0000.55,0000.21,0000.23,17.1,23.2,03.9,02.7,0669.3,30.9
2021-10-08T13:18:00Z,00000200,00000000,0000.03,0000.58,0000.19,0000.24,-000.14,0000.34,0000.16,0000.22,0000.15,17.1,23.3,04.0,02.8,0669.3,30.9
2021-10-08T13:19:00Z,00000200,00000000,0000.53,0000.00,0000.36,0000.42,0000.12,0000.57,0000.82,0000.96,0000.49,17.1,23.3,04.2,02.9,0669.3,30.9
2021-10-08T13:20:00Z,00000200,00000000,0000.50,0000.31,0000.10,-000.07,-000.06,0000.30,-000.09,-000.35,-000.35,17.1,23.3,04.3,02.9,0669.3,30.9
2021-10-08T13:21:00Z,00000200,00000000,-000.21,0000.47,0000.19,0000.10,0000.25,0000.12,-000.25,-000.17,-000.06,17.1,23.3,04.1,02.8,0669.3,30.9
2021-10-08T13:22:00Z,00000200,00000000,0000.19,0000.54,0000.29,0000.10,-000.04,0000.16,-000.47,-000.50,-000.24,17.0,23.2,03.9,02.6,0669.4,30.9
2021-10-08T13:23:00Z,00000200,00000000,0000.09,0000.53,0000.26,0000.36,-000.08,0000.26,-000.51,-000.50,-000.51,16.9,23.2,03.8,02.5,0669.4,30.8
2021-10-08T13:24:00Z,00000200,00000000,0000.04,0000.30,-000.04,0000.14,0000.05,0000.05,-001.28,-001.17,-000.73,16.9,23.2,03.4,02.3,0669.4,30.8
2021-10-08T13:25:00Z,00000200,00000000,0000.35,0000.18,0000.37,0000.40,-000.43,0000.03,-000.29,-000.22,-000.21,16.8,23.1,02.9,02.0,0669.4,30.8
2021-10-08T13:26:00Z,00000200,00000000,0000.30,0000.41,0000.14,-000.24,0000.04,0000.02,-000.33,-000.17,-000.28,16.8,23.1,02.6,01.8,0669.4,30.8
2021-10-08T13:27:00Z,00000200,00000000,0000.08,0000.59,0000.23,0000.55,-000.11,0000.02,0000.26,-000.14,-000.34,16.7,23.1,02.6,01.8,0669.4,30.8
2021-10-08T13:28:00Z,00000200,00000000,-000.06,0000.35,0000.29,0000.03,0000.03,0000.20,0000.40,0000.27,0000.67,16.7,23.1,02.7,01.8,0669.5,30.8
2021-10-08T13:29:00Z,00000200,00000000,0000.01,0000.15,0000.01,-000.08,-000.06,0000.23,0000.17,0000.27,0000.60,16.7,23.1,02.7,01.8,0669.5,30.8
2021-10-08T13:30:00Z,00000200,00000000,0000.23,0000.25,0000.14,-000.21,0000.06,0000.22,0000.34,0000.58,0000.23,16.8,23.1,02.7,01.8,0669.5,30.8
2021-10-08T13:31:00Z,00000200,00000000,0000.61,0000.35,0000.13,0000.29,-000.00,0000.47,0000.25,0000.68,0000.28,16.9,23.1,02.7,01.9,0669.5,30.8
2021-10-08T13:32:00Z,00000200,00000000,0000.13,0000.46,-000.15,0000.66,0000.10,-000.06,0000.48,-000.03,0000.02,17.0,23.1,02.7,01.8,0669.6,30.9
2021-10-08T13:33:00Z,00000200,00000000,-000.01,0000.26,0000.25,0000.23,-000.34,0000.38,0000.26,-000.20,0000.21,17.1,23.2,02.8,01.9,0669.5,30.9
2021-10-08T13:34:00Z,00000200,00000000,-000.38,0000.27,0000.00,-000.01,-000.02,0000.17,-000.38,0000.18,-000.19,17.1,23.2,02.8,01.9,0669.6,30.9
2021-10-08T13:35:00Z,00000200,00000000,-000.62,0000.23,0000.21,0000.25,-000.08,0000.08,-000.98,-000.44,-000.44,17.1,23.3,02.5,01.7,0669.6,30.9
2021-10-08T13:36:00Z,00000200,00000000,0000.14,0000.31,-000.03,0000.07,-000.21,-000.25,-000.62,-001.20,-000.79,17.1,23.3,02.2,01.5,0669.6,30.9
2021-10-08T13:37:00Z,00000200,01000000,-000.21,0000.44,0000.19,-000.16,-000.11,0000.67,-000.87,-000.56,-000.61,17.0,23.2,01.8,01.2,0669.6,30.9
2021-10-08T13:38:00Z,00000200,01000000,-000.12,0000.28,0000.10,-000.02,-000.05,0000.47,0000.39,-000.06,0000.40,16.9,23.2,01.8,01.2,0669.6,30.8
2021-10-08T13:39:00Z,00000200,01000000,0000.10,0000.09,-000.05,-000.31,0000.31,-000.02,-000.82,-000.65,-000.66,16.9,23.2,01.8,01.2,0669.7,30.8
2021-10-08T13:40:00Z,00000200,01000000,0000.21,0000.02,0000.42,0000.49,0000.07,-000.10,-000.30,-000.40,-000.27,16.8,23.1,01.4,00.9,0669.6,30.8
2021-10-08T13:41:00Z,00000200,01000000,-000.08,0000.05,0000.22,-000.50,0000.35,0000.45,0000.03,-000.07,-000.10,16.8,23.1,01.4,01.0,0669.6,30.8
2021-10-08T13:42:00Z,00000200,01000000,-000.27,0000.30,0000.03,0000.38,-000.14,0000.23,-000.24,-000.18,0000.05,16.7,23.1,01.4,00.9,0669.6,30.8
2021-10-08T13:43:00Z,00000200,01000000,0000.30,0000.45,0000.14,0000.05,-000.19,0000.18,0000.26,0000.40,0000.06,16.7,23.0,01.4,01.0,0669.6,30.8
2021-10-08T13:44:00Z,00000200,01000000,-000.00,0000.30,0000.09,-000.37,-000.11,0000.23,0000.74,0000.48,0000.69,16.7,23.1,01.6,01.1,0669.7,30.8
2021-10-08T13:45:00Z,00000200,01000000,-000.03,0000.16,-000.04,0000.02,-000.19,0000.28,-000.59,-000.15,-000.25,16.8,23.1,01.4,01.0,0669.7,30.8
2021-10-08T13:46:00Z,00000200,01000000,-000.12,0000.12,0000.10,-000.26,0000.27,-000.03,0000.40,0000.20,0000.48,16.9,23.1,01.4,00.9,0669.7,30.8
2021-10-08T13:47:00Z,00000200,01000000,0000.37,0000.22,0000.04,-000.14,-000.26,-000.04,0000.18,0000.43,0000.04,17.0,23.1,01.3,00.9,0669.7,30.8
2021-10-08T13:48:00Z,00000200,01000000,0001.01,0000.14,-000.27,0000.32,0000.17,-000.09,-001.01,-001.06,-000.82,17.1,23.2,01.3,00.9,0669.7,30.9
2021-10-08T13:49:00Z,00000200,01000000,-000.53,-000.13,-000.11,0000.08,-000.09,0000.16,-001.31,-000.87,-000.96,17.1,23.3,00.9,00.6,0669.9,30.9
2021-10-08T13:50:00Z,00000200,01000000,0000.11,-000.25,0000.07,0000.02,-000.35,0000.10,-001.36,-001.67,-000.31,17.1,23.3,00.4,00.3,0669.9,30.9
2021-10-08T13:51:00Z,00000200,01000000,0000.57,0000.02,0000.07,0000.22,-000.30,-000.03,-000.48,-001.00,-001.41,17.1,23.3,00.2,00.1,0669.9,30.9
2021-10-08T13:52:00Z,00000200,01000000,-000.99,-000.08,-000.16,0000.20,0000.20,0000.23,-000.10,0000.32,0000.03,17.0,23.2,00.1,00.1,0669.9,30.8
2021-10-08T13:53:00Z,00000200,01000000,-000.28,-000.05,-000.05,0000.31,0000.04,-000.05,0000.00,0000.09,0000.41,16.9,23.2,00.1,00.1,0669.9,30.8
2021-10-08T13:54:00Z,00000200,01000000,-000.41,0000.19,0000.06,0000.07,0000.13,0000.10,0000.82,0000.66,0000.41,16.8,23.1,00.2,00.1,0669.8,30.8
2021-10-08T13:55:00Z,00000200,01000000,-000.01,0000.11,-000.04,0000.27,-000.08,0000.32,0000.59,0000.60,0000.26,16.8,23.1,00.3,00.2,0669.8,30.8
2021-10-08T13:56:00Z,00000200,01000000,0000.19,0000.06,0000.04,0000.25,0000.18,0000.06,0000.19,0000.02,0000.19,16.7,23.1,00.6,00.4,0669.8,30.8
2021-10-08T13:57:00Z,00000200,41000000,,,,,,,0000.94,0001.07,0000.88,16.7,23.2,00.6,00.4,0669.9,30.8
2021-10-08T13:58:00Z,00000200,61000000,,,,,,,-000.60,-000.60,-000.29,16.3,23.2,00.9,00.6,0668.8,30.8
2021-10-08T13:59:00Z,00000200,21000000,,,,,,,-000.09,-000.14,-000.17,16.3,23.3,00.8,00.5,0668.8,30.8
